Starlink 3268

operational
NORAD ID: 50190 Int'l Des: 2021-125 Owner: SPXS Country: US Constellation: starlink
LEOCIRCULAR

Starlink 3268について

説明を読み込み中...

リアルタイム位置

3D地球を読み込み中...

次回通過

高度履歴

Altitude vs Time

uPlot chart will show altitude changes over time

軌道要素

1 50190U 21125AL 25259.16106154 -.00000619 00000-0 -20825-4 0 9992
2 50190 53.2176 302.6136 0001501 85.8013 274.3150 15.08834080210387
Epoch: Sep 16, 2025 • Age: 10 hours

現在のステータス

高度 540.0 km
速度 7.60 km/s
衛星直下点 23.83°N, 121.17°E
打ち上げ日 Dec 18, 2021
運用期間 3.7 years
タイプ internet

技術仕様

分類 Payload
質量 290.00 kg
乾燥質量 270.00 kg
総質量 290.00 kg
長さ 0.20 m
直径 2.80 m
スパン 9.00 m
形状 Box + pan
製造者 SPXS
バスタイプ Starlink
フェーズステータス In Orbit
所有者/国 SPXS/US

大規模コンステレーション

Loading constellations...